Location: Unspecified
(0.0000°N, 0.0000°E)
Time: 20:36:33
(UTC+00:00)

Vanguard 1 Rocket - Pass Details

Date: 21 March 2018
Orbit: 649 x 4227 km, 34.3° (Epoch: 16 November)

Event Time Altitude Azimuth Distance (km) Brightness Sun altitude
Rises 03:10:38 0° 275° (W) 8,033 - -44.2°
Reaches altitude 10° 03:17:11 10° 266° (W) 7,275 - -42.5°
Exits shadow 03:35:08 31° 223° (SW) 5,715 11.0 -38.0°
Maximum altitude 03:38:43 32° 210° (SSW) 5,555 11.0 -37.1°
Drops below altitude 10° 03:56:46 10° 152° (SSE) 6,039 11.8 -32.6°
Sets 04:01:41 0° 142° (SE) 6,570 12.3 -31.4°
